Terminal Aerodrome Forecast
Issued by NWS

Home | Current Version | Previous Version | Text Only | Print | Product List | Glossary On
Versions: 1 2 3 4 5 6 7 8 9 10 11 12 13 14 15 16 17 18 19 20
686
FTUS46 KSEW 281739
TAFCLM
TAF
KCLM 281739Z 2818/2918 00000KT P6SM -RA SCT015 BKN060 OVC080
     FM282000 32008KT P6SM VCSH SCT030 BKN050
     FM290600 29010KT P6SM OVC025=

USA.gov is the U.S. government's official web portal to all federal, state and local government web resources and services.